period_start,C,m1,H,J0,J1,J2,J3,J4,J5,JA,JB,JC,JD,JJ,JK,JN,#
2016-08-02 00:03:00,0.01,0.11,0.00,25.55,29.20,31.85,14.10,45.30,1005.99,2031.26,3417.01,3070.00,3476.00,599.89,584.69,9.90,0000 0000 0000 0000 000000
2016-08-02 00:08:01,0.00,0.11,0.00,25.54,29.20,31.86,14.19,45.45,1005.91,2031.26,3417.00,3069.99,3475.99,600.11,584.87,9.95,0000 0000 0000 0000 000000
2016-08-02 00:13:02,0.01,0.11,0.00,25.55,29.20,31.85,14.17,45.33,1005.95,2031.24,3416.92,3069.97,3475.85,600.09,584.79,10.00,0000 0000 0000 0000 000000
2016-08-02 00:18:03,0.03,0.11,0.00,25.54,29.20,31.85,14.17,45.32,1005.93,2031.42,3416.43,3069.95,3475.31,599.83,584.54,10.05,0000 0000 0000 0000 000000
2016-08-02 00:23:04,0.03,0.11,0.00,25.53,29.20,31.85,14.25,45.30,1005.90,2031.58,3416.04,3069.94,3475.02,600.11,584.89,10.10,0000 0000 0000 0000 000000
2016-08-02 00:28:05,-0.00,0.11,0.00,25.52,29.20,31.84,14.18,45.40,1005.89,2031.68,3416.00,3069.90,3475.00,600.03,584.79,10.15,0000 0000 0000 0000 000000
2016-08-02 00:33:06,-0.00,0.11,0.00,25.52,29.20,31.84,14.19,45.28,1005.88,2031.70,3415.99,3069.82,3474.99,600.19,584.97,10.20,0000 0000 0000 0000 000000
2016-08-02 00:38:08,0.02,0.11,0.00,25.52,29.20,31.83,14.15,45.33,1005.89,2031.59,3415.59,3069.48,3474.58,599.82,584.66,10.25,0000 0000 0000 0000 000000
2016-08-02 00:43:09,0.01,0.11,0.00,25.52,29.19,31.83,14.18,45.33,1005.89,2031.40,3415.05,3069.13,3474.05,600.06,584.69,10.30,0000 0000 0000 0000 000000
2016-08-02 00:48:11,-0.00,0.11,0.00,25.52,29.18,31.83,14.16,45.43,1005.91,2031.39,3415.00,3069.03,3474.00,599.82,584.60,10.35,0000 0000 0000 0000 000000
2016-08-02 00:53:12,0.04,0.11,0.00,25.51,29.17,31.83,14.25,45.53,1005.93,2031.75,3414.97,3069.06,3473.99,600.10,584.96,10.40,0000 0000 0000 0000 000000
2016-08-02 00:58:13,0.02,0.12,0.00,25.50,29.17,31.83,14.19,45.39,1005.93,2031.85,3414.53,3069.02,3473.78,600.18,585.00,10.45,0000 0000 0000 0000 000000
2016-08-02 01:03:14,0.01,0.12,0.00,25.50,29.17,31.82,14.20,45.40,1005.89,2031.86,3414.03,3069.01,3473.10,600.26,585.03,10.50,0000 0000 0000 0000 000000
2016-08-02 01:08:15,-0.00,0.12,0.00,25.50,29.17,31.84,14.15,45.42,1005.87,2031.82,3413.98,3069.00,3473.00,600.11,584.85,10.55,0000 0000 0000 0000 000000
2016-08-02 01:13:16,0.00,0.12,0.00,25.50,29.17,31.84,14.16,45.56,1005.87,2031.75,3413.61,3069.00,3472.94,599.68,584.62,10.60,0000 0000 0000 0000 000000
2016-08-02 01:18:18,0.01,0.12,0.00,25.50,29.17,31.84,14.16,45.44,1005.84,2031.73,3413.06,3068.99,3472.36,599.78,584.59,10.65,0000 0000 0000 0000 000000
2016-08-02 01:23:19,-0.00,0.12,0.00,25.50,29.17,31.82,14.18,45.29,1005.87,2031.73,3413.00,3068.98,3472.04,600.08,584.96,10.70,0000 0000 0000 0000 000000
2016-08-02 01:28:20,0.02,0.12,0.00,25.50,29.17,31.82,14.19,45.58,1005.87,2031.88,3412.92,3068.97,3472.00,600.07,584.81,10.75,0000 0000 0000 0000 000000
2016-08-02 01:33:22,0.08,0.12,0.00,25.49,29.17,31.81,14.23,45.50,1005.87,2031.96,3411.85,3068.47,3471.46,599.94,584.80,10.80,0000 0000 0000 0000 000000
2016-08-02 01:38:23,0.06,0.13,0.00,25.49,29.17,31.82,14.19,45.37,1005.87,2031.96,3409.08,3067.05,3469.98,600.09,584.90,10.85,0000 0000 0000 0000 000000
2016-08-02 01:43:24,0.01,0.13,0.00,25.48,29.17,31.81,14.14,45.31,1005.87,2031.92,3408.88,3067.00,3469.31,599.74,584.66,10.90,0000 0000 0000 0000 000000
2016-08-02 01:48:26,0.01,0.13,0.00,25.48,29.16,31.80,14.15,45.41,1005.88,2031.89,3408.17,3067.00,3469.01,599.90,584.66,10.95,0000 0000 0000 0000 000000
2016-08-02 01:53:27,0.00,0.13,0.00,25.49,29.16,31.82,14.17,45.35,1005.87,2031.92,3408.01,3066.99,3468.98,600.07,584.82,11.00,0000 0000 0000 0000 000000
2016-08-02 01:58:28,0.01,0.13,0.00,25.48,29.15,31.81,14.17,45.38,1005.87,2031.90,3407.96,3066.96,3468.54,600.54,585.39,11.05,0000 0000 0000 0000 000000
2016-08-02 02:03:29,0.02,0.13,0.00,25.47,29.15,31.81,14.20,45.39,1005.87,2031.91,3407.51,3066.95,3468.05,600.15,585.07,11.10,0000 0000 0000 0000 000000
2016-08-02 02:08:30,0.01,0.13,0.00,25.47,29.15,31.82,14.19,45.48,1005.86,2031.95,3407.09,3066.97,3468.00,600.01,584.82,11.15,0000 0000 0000 0000 000000
2016-08-02 02:13:31,0.00,0.13,0.00,25.47,29.15,31.80,14.17,45.40,1005.86,2031.97,3407.00,3066.94,3467.97,599.91,584.78,11.20,0000 0000 0000 0000 000000
2016-08-02 02:18:32,0.02,0.13,0.00,25.46,29.15,31.80,14.19,45.39,1005.87,2031.97,3406.86,3066.80,3467.44,600.15,585.08,11.25,0000 0000 0000 0000 000000
2016-08-02 02:23:33,0.02,0.13,0.00,25.46,29.15,31.81,14.27,45.36,1005.87,2031.91,3406.13,3066.35,3467.01,600.46,585.34,11.30,0000 0000 0000 0000 000000
2016-08-02 02:28:35,0.00,0.13,0.00,25.46,29.15,31.79,14.20,45.42,1005.88,2031.94,3406.00,3066.12,3466.98,600.01,584.94,11.35,0000 0000 0000 0000 000000
2016-08-02 02:33:36,0.02,0.13,0.00,25.45,29.15,31.79,14.22,45.43,1005.88,2031.95,3405.90,3066.06,3466.64,600.20,585.15,11.40,0000 0000 0000 0000 000000
2016-08-02 02:38:37,0.02,0.13,0.00,25.45,29.15,31.79,14.16,45.38,1005.88,2031.97,3405.39,3066.04,3466.10,600.07,585.01,11.46,0000 0000 0000 0000 000000
2016-08-02 02:43:39,0.00,0.13,0.00,25.45,29.15,31.79,14.10,45.36,1005.87,2031.97,3405.02,3066.03,3466.00,599.57,584.45,11.51,0000 0000 0000 0000 000000
2016-08-02 02:48:40,-0.00,0.13,0.00,25.45,29.15,31.80,14.17,45.44,1005.63,2031.97,3404.99,3066.01,3465.98,600.14,584.90,11.56,0000 0000 0000 0000 000000
2016-08-02 02:53:41,0.02,0.13,0.00,25.45,29.15,31.78,14.16,45.53,1005.80,2031.97,3404.69,3066.00,3465.46,600.03,584.89,11.61,0000 0000 0000 0000 000000
2016-08-02 02:58:43,0.01,0.14,0.00,25.45,29.14,31.79,14.12,45.38,1005.87,2031.95,3404.07,3066.00,3465.02,599.69,584.59,11.66,0000 0000 0000 0000 000000
2016-08-02 03:03:44,0.00,0.14,0.00,25.44,29.14,31.79,14.22,45.48,1005.87,2031.97,3404.00,3066.00,3464.99,600.20,585.19,11.71,0000 0000 0000 0000 000000
2016-08-02 03:08:46,0.00,0.14,0.00,25.43,29.13,31.79,14.17,45.45,1005.87,2031.97,3403.90,3066.00,3464.79,600.12,585.00,11.76,0000 0000 0000 0000 000000
2016-08-02 03:13:47,0.02,0.14,0.00,25.44,29.13,31.78,14.21,45.50,1005.87,2031.99,3403.37,3066.00,3464.20,599.80,584.80,11.81,0000 0000 0000 0000 000000
2016-08-02 03:18:48,0.00,0.14,0.00,25.45,29.12,31.77,14.18,45.44,1005.88,2031.98,3403.01,3065.99,3464.00,599.98,584.87,11.86,0000 0000 0000 0000 000000
2016-08-02 03:23:49,0.00,0.14,0.00,25.43,29.12,31.77,14.19,45.55,1005.87,2031.98,3402.91,3065.98,3463.87,600.21,585.24,11.91,0000 0000 0000 0000 000000
2016-08-02 03:28:50,0.02,0.14,0.00,25.42,29.12,31.79,14.17,45.43,1005.87,2031.98,3402.23,3065.99,3463.18,599.95,584.89,11.96,0000 0000 0000 0000 000000
2016-08-02 03:33:51,0.00,0.14,0.00,25.42,29.12,31.79,14.16,45.52,1005.87,2031.98,3402.01,3065.98,3463.01,599.92,584.85,12.01,0000 0000 0000 0000 000000
2016-08-02 03:38:52,0.00,0.14,0.00,25.42,29.12,31.77,14.23,45.45,1005.87,2031.98,3401.97,3065.98,3462.99,599.91,584.94,12.06,0000 0000 0000 0000 000000
2016-08-02 03:43:54,0.02,0.14,0.00,25.41,29.12,31.77,14.16,45.42,1005.87,2031.98,3401.33,3065.95,3462.38,600.24,585.22,12.11,0000 0000 0000 0000 000000
2016-08-02 03:48:55,0.00,0.14,0.00,25.41,29.12,31.76,14.16,45.31,1005.87,2031.99,3401.00,3065.95,3462.01,599.90,584.98,12.16,0000 0000 0000 0000 000000
2016-08-02 03:53:56,0.01,0.14,0.00,25.41,29.12,31.77,14.20,45.33,1005.87,2031.99,3400.81,3065.85,3461.86,600.30,585.20,12.21,0000 0000 0000 0000 000000
2016-08-02 03:58:57,0.03,0.14,0.00,25.41,29.12,31.76,14.10,45.38,1005.87,2031.99,3400.10,3065.59,3461.13,600.17,585.19,12.26,0000 0000 0000 0000 000000
2016-08-02 04:03:58,0.01,0.14,0.00,25.42,29.12,31.76,14.16,45.43,1005.84,2031.99,3399.99,3065.46,3461.00,599.59,584.53,12.31,0000 0000 0000 0000 000000
2016-08-02 04:09:00,0.01,0.14,0.00,25.42,29.12,31.75,14.14,45.38,1005.84,2031.99,3399.70,3065.25,3460.87,599.96,584.96,12.36,0000 0000 0000 0000 000000
2016-08-02 04:14:01,0.02,0.14,0.00,25.40,29.12,31.75,14.18,45.36,1005.87,2031.99,3399.07,3065.12,3460.19,600.20,585.15,12.41,0000 0000 0000 0000 000000
2016-08-02 04:19:02,0.00,0.14,0.00,25.40,29.12,31.76,14.22,45.34,1005.87,2031.99,3398.97,3065.02,3459.99,600.09,584.97,12.46,0000 0000 0000 0000 000000
2016-08-02 04:24:03,0.02,0.14,0.00,25.40,29.12,31.76,14.20,45.34,1005.87,2031.99,3398.45,3065.01,3459.74,600.23,585.17,12.51,0000 0000 0000 0000 000000
2016-08-02 04:29:05,0.01,0.15,0.00,25.40,29.12,31.75,14.25,45.52,1005.87,2031.99,3398.02,3065.00,3459.10,600.18,585.27,12.56,0000 0000 0000 0000 000000
2016-08-02 04:34:06,0.00,0.15,0.00,25.40,29.12,31.76,14.25,45.49,1005.87,2031.99,3397.93,3065.00,3458.99,600.19,585.17,12.61,0000 0000 0000 0000 000000
2016-08-02 04:39:07,0.02,0.15,0.00,25.40,29.11,31.76,14.21,45.49,1005.86,2031.99,3397.22,3065.00,3458.61,600.11,585.11,12.66,0000 0000 0000 0000 000000
2016-08-02 04:44:08,0.01,0.15,0.00,25.40,29.11,31.75,14.22,45.42,1005.83,2031.99,3397.00,3064.99,3458.02,599.96,584.96,12.71,0000 0000 0000 0000 000000
2016-08-02 04:49:10,0.01,0.15,0.00,25.40,29.10,31.74,14.11,45.56,1005.64,2031.99,3396.61,3064.98,3457.92,599.68,584.63,12.76,0000 0000 0000 0000 000000
2016-08-02 04:54:11,0.01,0.15,0.00,25.41,29.10,31.74,14.23,45.57,1005.41,2031.99,3396.03,3064.97,3457.23,600.26,585.00,12.81,0000 0000 0000 0000 000000
2016-08-02 04:59:12,0.00,0.15,0.00,25.39,29.10,31.75,14.21,45.46,1005.51,2031.99,3395.95,3064.97,3457.01,600.20,585.05,12.86,0000 0000 0000 0000 000000
2016-08-02 05:04:13,0.01,0.15,0.00,25.40,29.10,31.76,14.20,45.42,1005.66,2031.99,3395.20,3064.90,3456.91,599.99,584.92,12.91,0000 0000 0000 0000 000000
2016-08-02 05:09:15,0.01,0.15,0.00,25.39,29.10,31.75,14.19,45.44,1005.60,2031.99,3395.00,3064.77,3456.26,600.14,585.07,12.96,0000 0000 0000 0000 000000
2016-08-02 05:14:16,0.01,0.15,0.00,25.38,29.10,31.76,14.21,45.50,1005.41,2031.99,3394.98,3064.35,3456.00,600.30,585.00,13.01,0000 0000 0000 0000 000000
2016-08-02 05:19:17,0.01,0.15,0.00,25.37,29.11,31.75,14.28,45.36,1005.39,2031.99,3394.70,3064.21,3455.99,600.28,585.21,13.06,0000 0000 0000 0000 000000
2016-08-02 05:24:18,0.01,0.15,0.00,25.37,29.10,31.75,14.13,45.35,1005.39,2031.99,3394.05,3064.11,3455.96,600.09,584.80,13.11,0000 0000 0000 0000 000000
2016-08-02 05:29:19,0.01,0.15,0.00,25.37,29.10,31.74,14.22,45.45,1005.39,2031.99,3394.01,3064.08,3455.56,600.21,584.96,13.16,0000 0000 0000 0000 000000
2016-08-02 05:34:21,0.00,0.15,0.00,25.37,29.10,31.75,14.18,45.47,1005.40,2031.99,3394.00,3064.04,3455.09,600.12,584.90,13.21,0000 0000 0000 0000 000000
2016-08-02 05:39:22,0.00,0.15,0.00,25.37,29.10,31.74,14.20,45.53,1005.40,2031.99,3393.94,3064.01,3455.00,599.63,584.47,13.26,0000 0000 0000 0000 000000
2016-08-02 05:44:23,0.00,0.15,0.00,25.37,29.10,31.73,14.21,45.56,1005.39,2031.99,3393.77,3064.02,3455.00,600.33,585.05,13.31,0000 0000 0000 0000 000000
2016-08-02 05:49:25,0.00,0.15,0.00,25.37,29.11,31.74,14.20,45.47,1005.39,2031.99,3393.22,3064.01,3455.00,600.05,584.74,13.36,0000 0000 0000 0000 000000
2016-08-02 05:54:26,0.00,0.15,0.00,25.37,29.11,31.74,14.15,45.46,1005.39,2031.99,3393.06,3064.02,3454.97,599.91,584.68,13.41,0000 0000 0000 0000 000000
2016-08-02 05:59:27,0.00,0.15,0.00,25.37,29.12,31.75,14.14,45.36,1005.37,2031.99,3393.01,3064.00,3454.90,600.12,584.81,13.46,0000 0000 0000 0000 000000
2016-08-02 06:04:28,0.01,0.15,0.00,25.37,29.12,31.74,14.17,45.46,1005.37,2031.99,3393.00,3064.01,3454.35,599.62,584.30,13.51,0000 0000 0000 0000 000000
2016-08-02 06:09:30,0.00,0.16,0.00,25.37,29.12,31.74,14.20,45.44,1005.35,2031.99,3392.95,3064.00,3454.02,599.89,584.63,13.56,0000 0000 0000 0000 000000
2016-08-02 06:14:31,0.00,0.16,0.00,25.37,29.12,31.75,14.09,45.34,1005.16,2031.99,3392.50,3064.00,3454.00,599.78,584.39,13.61,0000 0000 0000 0000 000000
2016-08-02 06:19:32,0.00,0.16,0.00,25.37,29.12,31.75,14.09,45.50,1004.95,2031.99,3392.13,3064.00,3453.99,599.55,584.12,13.66,0000 0000 0000 0000 000000
2016-08-02 06:24:33,0.00,0.16,0.00,25.36,29.12,31.75,14.15,45.35,1004.91,2031.99,3392.02,3064.00,3453.96,599.85,584.36,13.71,0000 0000 0000 0000 000000
2016-08-02 06:29:34,0.00,0.16,0.00,25.36,29.12,31.75,14.14,45.41,1004.90,2031.99,3392.00,3063.99,3453.80,599.74,584.24,13.76,0000 0000 0000 0000 000000
2016-08-02 06:34:35,0.01,0.16,0.00,25.35,29.11,31.76,14.10,45.44,1004.89,2031.99,3391.97,3063.99,3453.40,599.53,584.05,13.81,0000 0000 0000 0000 000000
2016-08-02 06:39:37,0.01,0.16,0.00,25.36,29.11,31.76,14.13,45.48,1004.85,2031.99,3391.46,3063.99,3453.02,599.42,584.06,13.87,0000 0000 0000 0000 000000
2016-08-02 06:44:38,0.00,0.16,0.00,25.37,29.10,31.74,14.23,45.45,1005.00,2031.99,3391.01,3063.98,3452.89,600.43,584.96,13.92,0000 0000 0000 0000 000000
2016-08-02 06:49:39,0.01,0.16,0.00,25.35,29.10,31.75,14.17,45.47,1005.25,2031.99,3390.97,3063.98,3452.17,600.20,584.95,13.97,0000 0000 0000 0000 000000
2016-08-02 06:54:41,0.01,0.16,0.00,25.36,29.10,31.75,14.17,45.46,1004.94,2031.99,3390.37,3063.93,3451.99,599.97,584.51,14.02,0000 0000 0000 0000 000000
2016-08-02 06:59:42,0.01,0.16,0.00,25.36,29.10,31.75,14.18,45.42,1005.02,2031.99,3390.00,3063.89,3451.81,599.90,584.42,14.07,0000 0000 0000 0000 000000
2016-08-02 07:04:43,0.01,0.16,0.00,25.36,29.10,31.74,14.14,45.48,1005.07,2031.99,3389.93,3063.79,3451.21,599.70,584.40,14.12,0000 0000 0000 0000 000000
2016-08-02 07:09:45,0.01,0.16,0.00,25.36,29.10,31.74,14.22,45.44,1004.99,2031.99,3389.36,3063.60,3451.00,600.18,584.74,14.17,0000 0000 0000 0000 000000
2016-08-02 07:14:46,0.01,0.16,0.00,25.35,29.10,31.73,14.09,45.48,1004.93,2031.99,3389.02,3063.46,3450.89,599.71,584.26,14.22,0000 0000 0000 0000 000000
2016-08-02 07:19:47,0.01,0.16,0.00,25.35,29.10,31.75,14.23,45.53,1004.94,2031.99,3388.91,3063.17,3450.18,599.95,584.50,14.27,0000 0000 0000 0000 000000
2016-08-02 07:24:49,0.01,0.16,0.00,25.33,29.10,31.74,14.19,45.57,1004.93,2031.99,3388.17,3063.04,3449.98,600.05,584.68,14.32,0000 0000 0000 0000 000000
2016-08-02 07:29:50,0.01,0.16,0.00,25.34,29.10,31.74,14.21,45.48,1004.89,2031.99,3388.00,3063.02,3449.72,600.25,584.83,14.37,0000 0000 0000 0000 000000
2016-08-02 07:34:51,0.01,0.16,0.00,25.33,29.10,31.74,14.15,45.40,1004.89,2031.99,3387.77,3063.01,3449.07,599.93,584.63,14.42,0000 0000 0000 0000 000000
2016-08-02 07:39:52,0.01,0.16,0.00,25.33,29.10,31.75,14.22,45.59,1004.87,2031.99,3387.06,3063.00,3448.97,600.07,584.49,14.47,0000 0000 0000 0000 000000
2016-08-02 07:44:53,0.01,0.17,0.00,25.33,29.10,31.74,14.18,45.53,1004.53,2031.99,3386.99,3063.01,3448.50,600.33,584.69,14.52,0000 0000 0000 0000 000000
2016-08-02 07:49:55,0.01,0.17,0.00,25.32,29.10,31.73,14.11,45.30,1004.42,2031.99,3386.58,3063.00,3448.03,599.79,584.05,14.57,0000 0000 0000 0000 000000
2016-08-02 07:54:56,0.00,0.17,0.00,25.32,29.10,31.73,14.20,45.41,1004.63,2031.99,3386.04,3063.00,3447.98,599.87,584.25,14.62,0000 0000 0000 0000 000000
2016-08-02 07:59:58,0.01,0.17,0.00,25.33,29.10,31.74,14.17,45.45,1004.48,2031.99,3385.79,3063.00,3447.21,599.61,584.01,14.67,0000 0000 0000 0000 000000
2016-08-02 08:04:59,0.01,0.17,0.00,25.34,29.10,31.75,14.19,45.45,1004.46,2031.99,3385.15,3062.99,3447.00,600.03,584.37,14.72,0000 0000 0000 0000 000000
2016-08-02 08:10:00,0.00,0.17,0.00,25.31,29.10,31.74,14.24,45.56,1004.45,2031.99,3384.97,3062.98,3446.71,600.33,584.55,14.77,0000 0000 0000 0000 000000
2016-08-02 08:15:02,0.02,0.17,0.00,25.31,29.10,31.75,14.19,45.44,1004.43,2031.99,3384.34,3062.96,3446.04,600.38,584.72,14.82,0000 0000 0000 0000 000000
2016-08-02 08:20:03,0.00,0.17,0.00,25.32,29.10,31.75,14.24,45.55,1004.41,2032.00,3384.00,3062.92,3445.97,600.27,584.59,14.87,0000 0000 0000 0000 000000
2016-08-02 08:25:05,0.01,0.17,0.00,25.32,29.10,31.73,14.15,45.57,1004.42,2032.00,3383.95,3062.91,3445.54,599.45,583.69,14.92,0000 0000 0000 0000 000000
2016-08-02 08:30:06,0.02,0.17,0.00,25.35,29.10,31.75,14.17,45.48,1004.41,2032.00,3383.25,3062.84,3445.04,600.18,584.49,14.97,0000 0000 0000 0000 000000
2016-08-02 08:35:07,0.01,0.17,0.00,25.35,29.10,31.73,14.17,45.42,1004.41,2032.00,3382.96,3062.61,3444.73,599.83,584.13,15.02,0000 0000 0000 0000 000000
2016-08-02 08:40:08,0.03,0.17,0.00,25.37,29.10,31.74,14.19,45.58,1004.43,2032.00,3382.22,3062.39,3444.08,599.82,584.15,15.07,0000 0000 0000 0000 000000
2016-08-02 08:45:10,0.01,0.17,0.00,25.37,29.10,31.75,14.15,45.51,1004.43,2032.00,3381.87,3062.06,3443.77,599.99,584.06,15.12,0000 0000 0000 0000 000000
2016-08-02 08:50:11,0.01,0.18,0.00,25.39,29.10,31.76,14.16,45.58,1004.42,2032.00,3381.11,3062.00,3443.06,600.12,584.07,15.17,0000 0000 0000 0000 000000
2016-08-02 08:55:12,0.00,0.18,0.00,25.40,29.10,31.75,14.13,45.47,1004.41,2032.00,3380.96,3062.00,3442.87,599.90,584.00,15.22,0000 0000 0000 0000 000000
2016-08-02 09:00:13,0.02,0.18,0.00,25.41,29.10,31.76,14.18,45.58,1004.41,2032.00,3380.19,3062.00,3442.11,599.87,584.00,15.27,0000 0000 0000 0000 000000
2016-08-02 09:05:14,0.00,0.18,0.00,25.42,29.10,31.76,14.16,45.61,1004.41,2032.00,3379.98,3061.99,3441.95,599.58,583.76,15.32,0000 0000 0000 0000 000000
2016-08-02 09:10:16,0.02,0.18,0.00,25.42,29.10,31.77,14.20,45.62,1004.41,2032.00,3379.42,3061.98,3441.27,599.71,583.75,15.37,0000 0000 0000 0000 000000
2016-08-02 09:15:17,0.00,0.18,0.00,25.42,29.10,31.75,14.11,45.49,1004.41,2032.00,3379.01,3061.95,3441.01,599.77,583.96,15.42,0000 0000 0000 0000 000000
2016-08-02 09:20:18,0.02,0.18,0.00,25.43,29.10,31.76,14.13,45.52,1004.41,2032.00,3378.72,3061.64,3440.66,599.53,583.63,15.47,0000 0000 0000 0000 000000
2016-08-02 09:25:19,0.02,0.18,0.00,25.44,29.10,31.76,14.22,45.50,1004.24,2032.00,3378.02,3061.21,3440.03,600.51,584.44,15.52,0000 0000 0000 0000 000000
2016-08-02 09:30:20,0.00,0.18,0.00,25.44,29.11,31.75,14.15,45.51,1004.19,2032.00,3377.94,3061.09,3439.96,599.97,583.86,15.57,0000 0000 0000 0000 000000
2016-08-02 09:35:22,0.02,0.18,0.00,25.43,29.12,31.76,14.14,45.54,1003.94,2032.00,3377.24,3061.01,3439.31,600.05,583.84,15.62,0000 0000 0000 0000 000000
2016-08-02 09:40:23,0.00,0.18,0.00,25.42,29.12,31.76,14.19,45.42,1003.92,2032.00,3376.99,3061.00,3438.99,600.40,584.09,15.67,0000 0000 0000 0000 000000
2016-08-02 09:45:25,0.00,0.18,0.00,25.42,29.12,31.76,14.11,45.52,1003.94,2032.00,3376.81,3061.00,3438.88,599.75,583.64,15.72,0000 0000 0000 0000 000000
2016-08-02 09:50:26,0.02,0.18,0.00,25.42,29.12,31.77,14.17,45.51,1003.97,2032.00,3376.09,3061.00,3438.28,600.06,583.91,15.77,0000 0000 0000 0000 000000
2016-08-02 09:55:27,0.00,0.18,0.00,25.42,29.12,31.79,14.19,45.52,1003.93,2032.00,3376.00,3061.00,3438.03,599.87,583.67,15.82,0000 0000 0000 0000 000000
2016-08-02 10:00:29,0.00,0.18,0.00,25.41,29.12,31.77,14.17,45.54,1003.92,2032.00,3376.00,3060.98,3438.00,599.98,583.75,15.87,0000 0000 0000 0000 000000
2016-08-02 10:05:30,0.00,0.18,0.00,25.41,29.12,31.78,14.15,45.58,1003.92,2031.99,3375.95,3060.94,3437.98,599.70,583.62,15.92,0000 0000 0000 0000 000000
2016-08-02 10:10:32,0.01,0.19,0.00,25.40,29.12,31.79,14.15,45.56,1003.92,2031.99,3375.41,3060.91,3437.84,600.05,584.02,15.97,0000 0000 0000 0000 000000
2016-08-02 10:15:33,0.02,0.19,0.00,25.40,29.12,31.78,14.12,45.44,1003.92,2031.99,3375.02,3060.71,3437.14,599.96,583.83,16.02,0000 0000 0000 0000 000000
2016-08-02 10:20:35,0.01,0.19,0.00,25.40,29.12,31.78,14.15,45.58,1003.92,2031.99,3374.87,3060.27,3437.00,600.02,583.89,16.07,0000 0000 0000 0000 000000
2016-08-02 10:25:36,0.01,0.19,0.00,25.40,29.12,31.77,14.17,45.67,1003.92,2031.99,3374.15,3060.04,3436.98,599.96,583.83,16.12,0000 0000 0000 0000 000000
2016-08-02 10:30:37,0.00,0.19,0.00,25.38,29.12,31.78,14.18,45.69,1003.92,2031.99,3374.01,3060.03,3436.89,600.01,583.88,16.18,0000 0000 0000 0000 000000
2016-08-02 10:35:39,0.00,0.19,0.00,25.37,29.12,31.77,14.17,45.70,1003.92,2031.99,3374.00,3060.05,3436.70,599.89,583.76,16.23,0000 0000 0000 0000 000000
2016-08-02 10:40:40,0.01,0.19,0.00,25.37,29.12,31.76,14.15,45.64,1003.89,2031.99,3373.99,3060.03,3436.15,599.82,583.85,16.28,0000 0000 0000 0000 000000
2016-08-02 10:45:41,0.00,0.19,0.00,25.37,29.12,31.77,14.14,45.42,1003.85,2031.99,3373.86,3060.01,3436.02,600.12,583.96,16.33,0000 0000 0000 0000 000000
2016-08-02 10:50:42,0.01,0.19,0.00,25.38,29.12,31.75,14.16,45.60,1003.70,2031.99,3373.22,3060.00,3436.00,600.01,583.81,16.38,0000 0000 0000 0000 000000
2016-08-02 10:55:43,0.00,0.19,0.00,25.37,29.12,31.77,14.16,45.61,1003.61,2031.99,3373.00,3060.00,3435.99,600.04,583.78,16.43,0000 0000 0000 0000 000000
2016-08-02 11:00:44,0.00,0.19,0.00,25.37,29.12,31.76,14.15,45.60,1003.54,2031.99,3373.00,3060.00,3435.87,600.12,583.74,16.48,0000 0000 0000 0000 000000
2016-08-02 11:05:45,0.00,0.19,0.00,25.37,29.12,31.76,14.19,45.72,1003.54,2031.99,3372.95,3060.00,3435.60,600.01,583.83,16.53,0000 0000 0000 0000 000000
2016-08-02 11:10:46,0.02,0.19,0.00,25.37,29.10,31.76,14.12,45.63,1003.68,2031.99,3372.32,3059.99,3435.09,599.85,583.63,16.58,0000 0000 0000 0000 000000
2016-08-02 11:15:47,0.01,0.19,0.00,25.37,29.10,31.76,14.12,45.61,1003.50,2031.99,3371.99,3059.71,3434.98,599.86,583.43,16.63,0000 0000 0000 0000 000000
2016-08-02 11:20:49,0.01,0.19,0.00,25.37,29.10,31.77,14.11,45.54,1003.43,2031.99,3371.80,3059.53,3434.90,599.93,583.52,16.68,0000 0000 0000 0000 000000
2016-08-02 11:25:50,0.02,0.19,0.00,25.37,29.10,31.77,14.13,45.57,1003.43,2031.99,3371.15,3059.30,3434.33,600.24,583.89,16.73,0000 0000 0000 0000 000000
2016-08-02 11:30:51,0.00,0.19,0.00,25.35,29.10,31.77,14.12,45.51,1003.43,2031.99,3371.02,3059.29,3434.08,599.98,583.50,16.78,0000 0000 0000 0000 000000
2016-08-02 11:35:53,0.00,0.19,0.00,25.35,29.10,31.78,14.12,45.48,1003.42,2031.99,3370.99,3059.05,3434.00,599.85,583.56,16.83,0000 0000 0000 0000 000000
2016-08-02 11:40:54,0.00,0.19,0.00,25.35,29.10,31.76,14.19,45.69,1003.41,2031.99,3370.81,3059.01,3433.99,600.15,583.70,16.88,0000 0000 0000 0000 000000
2016-08-02 11:45:55,0.00,0.19,0.00,25.35,29.10,31.77,14.17,45.55,1003.41,2031.99,3370.45,3059.01,3433.98,599.89,583.44,16.93,0000 0000 0000 0000 000000
2016-08-02 11:50:56,0.01,0.20,0.00,25.33,29.10,31.75,14.16,45.64,1003.19,2031.99,3370.06,3059.01,3433.71,600.03,583.63,16.98,0000 0000 0000 0000 000000
2016-08-02 11:55:57,0.00,0.20,0.00,25.33,29.10,31.76,14.12,45.48,1002.98,2031.99,3370.00,3059.00,3433.29,599.81,583.26,17.03,0000 0000 0000 0000 000000
2016-08-02 12:00:58,0.00,0.20,0.00,25.32,29.09,31.75,14.10,45.53,1002.96,2031.99,3370.00,3059.00,3433.06,599.73,583.19,17.08,0000 0000 0000 0000 000000
2016-08-02 12:06:00,0.00,0.20,0.00,25.32,29.08,31.75,14.11,45.59,1002.96,2031.99,3369.94,3059.00,3433.00,599.73,583.12,17.13,0000 0000 0000 0000 000000
2016-08-02 12:11:01,0.00,0.20,0.00,25.32,29.07,31.75,14.10,45.58,1002.95,2031.99,3369.66,3059.00,3433.00,599.76,583.16,17.18,0000 0000 0000 0000 000000
2016-08-02 12:16:02,0.00,0.20,0.00,25.30,29.07,31.75,14.15,45.53,1002.95,2031.99,3369.15,3059.00,3433.00,600.21,583.59,17.23,0000 0000 0000 0000 000000
2016-08-02 12:21:04,0.00,0.20,0.00,25.32,29.07,31.73,14.11,45.52,1002.95,2031.99,3369.02,3059.00,3432.99,600.05,583.60,17.28,0000 0000 0000 0000 000000
2016-08-02 12:26:05,0.00,0.20,0.00,25.32,29.07,31.75,14.14,45.50,1002.95,2031.99,3369.00,3059.00,3432.91,600.35,583.84,17.33,0000 0000 0000 0000 000000
2016-08-02 12:31:06,0.00,0.20,0.00,25.30,29.07,31.75,14.18,45.54,1002.94,2031.99,3368.98,3058.99,3432.73,600.01,583.49,17.38,0000 0000 0000 0000 000000
2016-08-02 12:36:07,0.01,0.20,0.00,25.30,29.07,31.73,14.14,45.56,1002.94,2031.99,3368.96,3058.99,3432.28,600.03,583.58,17.43,0000 0000 0000 0000 000000
2016-08-02 12:41:08,0.00,0.20,0.00,25.30,29.07,31.74,14.08,45.51,1002.94,2031.99,3368.59,3058.98,3432.04,599.86,583.33,17.48,0000 0000 0000 0000 000000
2016-08-02 12:46:09,0.00,0.20,0.00,25.30,29.06,31.73,14.13,45.55,1002.94,2031.99,3368.26,3058.99,3432.01,599.77,583.36,17.53,0000 0000 0000 0000 000000
2016-08-02 12:51:11,0.00,0.20,0.00,25.29,29.05,31.73,14.10,45.55,1002.78,2031.99,3368.01,3058.97,3432.00,599.91,583.38,17.58,0000 0000 0000 0000 000000
2016-08-02 12:56:12,0.00,0.20,0.00,25.28,29.05,31.72,14.13,45.49,1002.50,2031.99,3368.00,3058.97,3432.00,599.61,582.96,17.63,0000 0000 0000 0000 000000